Weather History for Davenport, IA

Change the Weather History Date:

Wednesday, January 30, 2013

  Actual Average Record
Temperature  
Mean Temperature 25 °F 22 °F  
Max Temperature 35 °F 31 °F 58 °F (2012)
Min Temperature 14 °F 14 °F -14 °F (1951)
Degree Days  
Heating Degree Days 40 43  
Month to date heating degree days 1198 1314  
Since 1 July heating degree days 3640 3894  
Cooling Degree Days 0 0  
Month to date cooling degree days 0 0  
Year to date cooling degree days 0 0  
Moisture  
Dew Point 23 °F    
Average Humidity 87    
Maximum Humidity 100    
Minimum Humidity 73    
Precipitation  
Precipitation 0.32 in 0.07 in 0.32 in (2013)
Month to date precipitation 1.87 1.12  
Year to date precipitation 1.87 1.12  
Snow  
Snow 1.70 in - - ()
Month to date snowfall 2.7  
Since 1 July snowfall 8.3  
Snow Depth 0.00 in    
Sea Level Pressure  
Sea Level Pressure 29.48 in    
Wind  
Wind Speed 19 mph (NW)    
Max Wind Speed 30 mph    
Max Gust Speed 38 mph    
Visibility 3 miles    
Events Fog , Rain , Snow    
T = Trace of Precipitation, MM = Missing Value Source: NWS Daily Summary

Daily Weather History Graph

Daily Weather History Graph

Search for Another Location

Airport:

Trip Planner

Search our weather history database for the weather conditions in past years. The results will help you decide how hot, cold, wet, or windy it might be!

Date:

Astronomy

Jan. 30, 2013 Rise Set
Actual Time 7:15 AM CST 5:15 PM CST
Civil Twilight 6:46 AM CST 5:45 PM CST
Nautical Twilight 6:13 AM CST 6:18 PM CST
Astronomical Twilight 5:40 AM CST 6:51 PM CST
Moon 9:18 PM CST (1/30) 8:40 AM CST (1/30)
Length of Visible Light 10h 59m
Length of Day
9h 59m
Waning Gibbous, 87% of the Moon is Illuminated
Jan 30
Waning Gibbous
Feb 3
Last Quarter
Feb 10
New
Feb 17
First Quarter
Feb 25
Full

Hourly Weather History & Observations

Time (CST) Temp. Windchill Dew Point Humidity Pressure Visibility Wind Dir Wind Speed Gust Speed Precip Events Conditions
12:08 AM 35.6 °F 27.5 °F 33.8 °F 93% 29.49 in 4.0 mi North 11.5 mph - 0.01 in Rain Light Rain
12:52 AM 35.1 °F 27.4 °F 33.1 °F 92% 29.46 in 6.0 mi NNE 10.4 mph - 0.02 in   Overcast
1:52 AM 35.1 °F 28.6 °F 33.1 °F 92% 29.46 in 5.0 mi North 8.1 mph - 0.00 in Rain Light Rain
2:52 AM 34.0 °F 28.0 °F 33.1 °F 96% 29.49 in 4.0 mi NNW 6.9 mph - 0.05 in Rain Light Rain
3:04 AM 33.8 °F 27.7 °F 33.8 °F 100% 29.46 in 4.0 mi NNW 6.9 mph - 0.01 in Rain Light Rain
3:13 AM 33.8 °F 28.6 °F 33.8 °F 100% 29.45 in 4.0 mi North 5.8 mph - 0.02 in Rain Light Rain
3:44 AM 33.8 °F 25.3 °F 32.0 °F 93% 29.38 in 6.0 mi NNE 11.5 mph - 0.03 in Rain Light Rain
3:52 AM 34.0 °F 25.5 °F 32.0 °F 92% 29.39 in 6.0 mi NNE 11.5 mph - 0.03 in   Overcast
4:52 AM 34.0 °F 27.2 °F 32.0 °F 92% 29.40 in 8.0 mi NNE 8.1 mph 16.1 mph N/A   Overcast
5:28 AM 33.8 °F 24.8 °F 33.8 °F 100% 29.34 in 2.5 mi NNE 12.7 mph - N/A   Overcast
5:43 AM 33.8 °F 25.8 °F 33.8 °F 100% 29.33 in 3.0 mi NE 10.4 mph - N/A   Overcast
5:52 AM 34.0 °F 25.5 °F 33.1 °F 96% 29.34 in 3.0 mi ENE 11.5 mph - N/A   Overcast
6:37 AM 33.8 °F 25.3 °F 33.8 °F 100% 29.31 in 2.5 mi ENE 11.5 mph - 0.01 in Rain Light Rain
6:45 AM 33.8 °F 24.8 °F 33.8 °F 100% 29.31 in 3.0 mi ENE 12.7 mph - 0.02 in Rain Rain
6:52 AM 34.0 °F 26.6 °F 33.1 °F 96% 29.34 in 3.0 mi NE 9.2 mph - 0.04 in Rain Rain
7:18 AM 33.8 °F 27.0 °F 32.0 °F 93% 29.33 in 2.5 mi NNW 8.1 mph - 0.05 in Snow Light Snow
7:28 AM 33.8 °F 25.8 °F 32.0 °F 93% 29.34 in 3.0 mi NNW 10.4 mph - 0.06 in Snow Light Snow
7:34 AM 33.8 °F 25.8 °F 32.0 °F 93% 29.35 in 1.8 mi NW 10.4 mph - 0.07 in Snow Light Snow
7:47 AM 32.0 °F 22.1 °F 30.2 °F 93% 29.38 in 0.5 mi WNW 13.8 mph - 0.10 in Fog , Snow Snow
7:52 AM 32.0 °F 21.6 °F 30.9 °F 96% 29.40 in 0.2 mi WNW 15.0 mph - 0.10 in Fog , Snow Snow
8:03 AM 32.0 °F 22.5 °F 30.2 °F 93% 29.38 in 0.5 mi NW 12.7 mph - 0.02 in Fog , Snow Snow
8:06 AM 32.0 °F 21.6 °F 30.2 °F 93% 29.38 in 0.2 mi NW 15.0 mph - 0.03 in Fog , Snow Snow
8:39 AM 32.0 °F 19.8 °F 30.2 °F 93% 29.37 in 0.2 mi NNW 20.7 mph - 0.05 in Fog , Snow Snow
8:52 AM 32.0 °F 19.8 °F 30.9 °F 96% 29.38 in 0.5 mi NNW 20.7 mph - 0.05 in Fog , Snow Light Snow
9:19 AM 30.2 °F 15.9 °F 28.4 °F 93% 29.31 in 0.2 mi North 26.5 mph 35.7 mph 0.00 in Fog , Snow Light Snow
9:36 AM 30.2 °F 15.9 °F 28.4 °F 93% 29.34 in 0.5 mi North 26.5 mph 32.2 mph 0.00 in Fog , Snow Light Snow
9:52 AM 30.0 °F 14.7 °F 28.0 °F 92% 29.36 in 0.8 mi NNW 31.1 mph 36.8 mph 0.00 in Snow Light Snow
10:01 AM 30.2 °F 15.4 °F 26.6 °F 86% 29.35 in 0.5 mi North 28.8 mph 38.0 mph 0.00 in Fog , Snow Light Snow
10:12 AM 30.2 °F 15.9 °F 26.6 °F 86% 29.35 in 1.2 mi NNW 26.5 mph 34.5 mph 0.00 in Snow Light Snow
10:23 AM 30.2 °F 15.9 °F 26.6 °F 86% 29.36 in 1.8 mi NNW 26.5 mph 36.8 mph 0.00 in Rain Light Freezing Rain
10:30 AM 28.4 °F 14.4 °F 26.6 °F 93% 29.36 in 3.0 mi NNW 23.0 mph 32.2 mph 0.00 in Rain Light Freezing Rain
10:52 AM 30.0 °F 15.4 °F 25.0 °F 82% 29.41 in 10.0 mi NNW 27.6 mph 33.4 mph 0.00 in   Overcast
11:03 AM 30.2 °F 17.1 °F 24.8 °F 80% 29.39 in 10.0 mi NNW 21.9 mph 28.8 mph N/A   Overcast
11:52 AM 28.9 °F 15.8 °F 25.0 °F 85% 29.41 in 3.0 mi NNW 20.7 mph 27.6 mph 0.00 in Snow Light Snow
12:01 PM 28.4 °F 16.2 °F 26.6 °F 93% 29.39 in 1.8 mi NW 17.3 mph 27.6 mph 0.00 in Snow Light Snow
12:17 PM 28.4 °F 15.4 °F 26.6 °F 93% 29.40 in 0.8 mi NW 19.6 mph - 0.01 in Snow Light Snow
12:28 PM 28.4 °F 15.4 °F 26.6 °F 93% 29.40 in 0.5 mi WNW 19.6 mph 26.5 mph 0.01 in Fog , Snow Snow
12:49 PM 26.6 °F 13.1 °F 24.8 °F 93% 29.41 in 1.2 mi NW 19.6 mph 26.5 mph 0.01 in Snow Light Snow
12:52 PM 27.0 °F 13.9 °F 24.1 °F 89% 29.44 in 1.0 mi NW 18.4 mph 26.5 mph 0.01 in Snow Light Snow
1:00 PM 26.6 °F 12.0 °F 23.0 °F 86% 29.41 in 0.2 mi NW 23.0 mph 31.1 mph 0.00 in Fog , Snow Snow
1:14 PM 26.6 °F 12.7 °F 23.0 °F 86% 29.42 in 0.5 mi WNW 20.7 mph 29.9 mph 0.00 in Fog , Snow Snow
1:52 PM 25.0 °F 10.9 °F 21.9 °F 88% 29.46 in 0.5 mi NW 19.6 mph 26.5 mph 0.00 in Fog , Snow Snow
2:01 PM 24.8 °F 9.3 °F 21.2 °F 86% 29.45 in 0.2 mi NW 24.2 mph 31.1 mph 0.00 in Fog , Snow Snow
2:11 PM 24.8 °F 10.0 °F 21.2 °F 86% 29.45 in 0.2 mi NW 21.9 mph 33.4 mph 0.00 in Fog , Snow Snow
2:21 PM 24.8 °F 8.4 °F 21.2 °F 86% 29.46 in 0.2 mi NW 27.6 mph 35.7 mph 0.00 in Fog , Snow Snow
2:52 PM 24.1 °F 8.3 °F 21.0 °F 88% 29.50 in 0.2 mi NW 24.2 mph 35.7 mph 0.00 in Fog , Snow Heavy Snow
3:11 PM 24.8 °F 8.4 °F 21.2 °F 86% 29.49 in 0.5 mi WNW 27.6 mph 34.5 mph 0.00 in Fog , Snow Light Snow
3:16 PM 23.0 °F 5.7 °F 19.4 °F 86% 29.49 in 0.2 mi NW 28.8 mph 36.8 mph 0.00 in Fog , Snow Snow
3:42 PM 23.0 °F 6.6 °F 19.4 °F 86% 29.51 in 0.2 mi NW 25.3 mph 36.8 mph 0.00 in Fog , Rain Light Freezing Rain
3:52 PM 23.0 °F 6.9 °F 19.0 °F 85% 29.55 in 0.5 mi NW 24.2 mph 33.4 mph N/A Fog , Rain Light Freezing Rain
4:02 PM 23.0 °F 8.0 °F 19.4 °F 86% 29.53 in 1.2 mi NW 20.7 mph 29.9 mph N/A Rain Light Freezing Rain
4:04 PM 23.0 °F 8.3 °F 19.4 °F 86% 29.53 in 1.5 mi WNW 19.6 mph 29.9 mph N/A   Overcast
4:12 PM 23.0 °F 6.9 °F 19.4 °F 86% 29.54 in 1.2 mi WNW 24.2 mph 28.8 mph N/A Snow Light Snow
4:29 PM 21.2 °F 3.9 °F 19.4 °F 93% 29.55 in 0.8 mi WNW 26.5 mph 33.4 mph N/A Snow Light Snow
4:40 PM 21.2 °F 4.2 °F 17.6 °F 86% 29.56 in 0.8 mi WNW 25.3 mph 33.4 mph N/A Snow Light Snow
4:52 PM 19.9 °F 3.5 °F 17.1 °F 89% 29.59 in 1.0 mi WNW 21.9 mph 32.2 mph N/A   Mostly Cloudy
4:58 PM 21.2 °F 5.2 °F 17.6 °F 86% 29.57 in 1.5 mi WNW 21.9 mph 29.9 mph N/A Rain Light Freezing Rain
5:12 PM 19.4 °F 1.8 °F 17.6 °F 93% 29.57 in 0.8 mi WNW 25.3 mph 33.4 mph N/A Rain Light Freezing Rain
5:20 PM 19.4 °F 1.8 °F 15.8 °F 86% 29.58 in 1.0 mi WNW 25.3 mph 32.2 mph N/A Rain Light Freezing Rain
5:29 PM 19.4 °F 2.5 °F 15.8 °F 86% 29.59 in 2.0 mi WNW 23.0 mph 31.1 mph N/A Rain Light Freezing Rain
5:52 PM 19.0 °F 2.0 °F 15.1 °F 85% 29.63 in 2.5 mi WNW 23.0 mph 32.2 mph N/A Rain Light Freezing Rain
5:57 PM 19.4 °F 1.4 °F 14.0 °F 80% 29.60 in 3.0 mi WNW 26.5 mph 32.2 mph N/A   Clear
6:04 PM 17.6 °F -0.6 °F 14.0 °F 86% 29.61 in 2.5 mi WNW 25.3 mph 33.4 mph N/A Rain Light Freezing Rain
6:15 PM 17.6 °F -0.6 °F 12.2 °F 79% 29.62 in 4.0 mi WNW 25.3 mph 32.2 mph N/A Rain Light Freezing Rain
6:34 PM 17.6 °F 0.1 °F 12.2 °F 79% 29.64 in 5.0 mi WNW 23.0 mph 31.1 mph N/A   Haze
6:52 PM 19.0 °F 2.0 °F 12.9 °F 77% 29.67 in 3.0 mi WNW 23.0 mph 33.4 mph N/A   Mostly Cloudy
7:49 PM 19.4 °F 2.5 °F 12.2 °F 74% 29.67 in 6.0 mi WNW 23.0 mph - N/A   Haze
7:52 PM 19.0 °F 2.4 °F 14.0 °F 81% 29.70 in 6.0 mi WNW 21.9 mph - N/A   Haze
8:05 PM 19.4 °F 1.8 °F 12.2 °F 74% 29.67 in 3.0 mi WNW 25.3 mph 35.7 mph N/A   Overcast
8:52 PM 18.0 °F -0.2 °F 12.9 °F 81% 29.72 in 4.0 mi WNW 25.3 mph 34.5 mph N/A   Overcast
9:52 PM 16.0 °F -1.3 °F 10.0 °F 77% 29.75 in 8.0 mi WNW 20.7 mph - N/A   Partly Cloudy
10:39 PM 15.8 °F -2.3 °F 10.4 °F 79% 29.73 in 6.0 mi West 23.0 mph 29.9 mph N/A Snow Light Snow
10:52 PM 15.1 °F -3.3 °F 10.0 °F 80% 29.77 in 8.0 mi West 23.0 mph 28.8 mph N/A   Overcast
11:29 PM 14.0 °F -4.7 °F 8.6 °F 79% 29.76 in 10.0 mi West 23.0 mph - N/A   Scattered Clouds
11:52 PM 14.0 °F -4.3 °F 9.0 °F 80% 29.80 in 9.0 mi WNW 21.9 mph - N/A Snow Light Snow